Find Kosmos-2315

NORAD ID: 23603 Int'l Des: 1995-032 Owner: VMFR/VKS Country: RU operational
LEOCIRCULARPOLAR

Current View

Loading 3D Globe...

About Kosmos-2315

Description loading...

Upcoming Passes

Passes for default location (London). Set your location on the main map for personalized predictions.

Altitude History

Loading altitude history...

Two-Line Element Set

1 23603U 95032A 26150.83435177 .00000052 00000-0 40233-4 0 9998
2 23603 82.9042 264.5438 0029476 265.1586 212.6935 13.73090503548314
Epoch: May 30, 2026 • Age: 19 hours

Current Status

Altitude 1015.8 km
Velocity 7.34 km/s
Sub-Earth Point 59.30°N, 46.33°W
Launch Date Jul 5, 1995
Age 30.9 years
Type other

Technical Details

Classification Payload
Mass 840.00 kg
Dry Mass 840.00 kg
Total Mass 840.00 kg
Length 5.00 m
Diameter 2.10 m
Span 17.00 m
Shape Cyl + Ant
Manufacturer POL
Bus Type KAUR-1 11F643N
Phase Status In Orbit
Owner/State VMFR/VKS/RU

Most Searched